User: anonymous   Login
Location: Unspecified
(30.8073°N, 0.0000°E)
Time: 19:48:24
(UTC+00:00)
Language:

AO-85 - Orbit

View from above orbital plane
View from above orbital plane
View from above satellite
View from above satellite

Ground track
Ground track

The orbit data is extracted from the following two-line orbital elements,

1 40967U 15058D   19226.37157496  .00000133  00000 0  32972-4 0  7763
2 40967  64.7789 346.2593 0193623 184.6463 175.2876 14.75975887116103
Epoch (UTC): 14 August 2019 08:55:04
Eccentricity: 0.0193623
inclination: 64.7789°
perigee height: 506 km
apogee height: 778 km
right ascension of ascending node: 346.2593°
argument of perigee: 184.6463°
revolutions per day: 14.75975887
mean anomaly at epoch: 175.2876°
orbit number at epoch: 11610

The dashed part of the orbit path shows where the satellite is in the earth's shadow,  

DLR